User: anonymous
Location: Caltech
(34.1382°N, 118.1253°W)
Time: 19:23:36
(UTC-07:00)
Language:

Oscar 11 - Orbit

View from above orbital plane
View from above orbital plane
View from above satellite
View from above satellite

Ground track
Ground track

The orbit data is extracted from the following two-line orbital elements,

1 14781U 84021B   14265.14380076  .00000735  00000-0  99762-4 0  6138
2 14781 097.8415 323.3332 0008131 216.2344 143.8319 14.81744992642326
Epoch (UTC): 22 September 2014 03:27:04
Eccentricity: 0.0008131
inclination: 97.8415°
perigee height: 618 km
apogee height: 629 km
right ascension of ascending node: 323.3332°
argument of perigee: 216.2344°
revolutions per day: 14.81744992
mean anomaly at epoch: 143.8319°
orbit number at epoch: 64232

The dashed part of the orbit path shows where the satellite is in the earth's shadow,  

DLR